Location: Oshawa
(43.9000°N, 78.8670°W)
Time: 10:50:33
(UTC-05:00)

Explorer 11/Cluster Stage 4 - Visible Passes

Search period start: 27 February 2017 00:00
Search period end: 09 March 2017 00:00
Orbit: 467 x 1263 km, 28.8° (Epoch: 26 February)

Date Brightness Start Highest point End Pass type
(mag) Time Alt. Az. Time Alt. Az. Time Alt. Az.
27 Feb 8.8 04:13:43 23° S 04:14:33 23° S 04:20:20 10° ESE visible
27 Feb 8.8 05:56:39 10° SW 06:02:50 25° S 06:08:26 10° SE visible
28 Feb 8.8 04:04:11 24° S 04:04:16 24° S 04:10:19 10° ESE visible
28 Feb 8.8 05:46:22 10° WSW 05:52:34 25° S 05:58:19 10° SE visible
01 Mar 8.8 03:54:38 25° SSE 03:54:38 25° SSE 04:00:13 10° ESE visible
01 Mar 8.8 05:36:49 13° SW 05:42:17 25° S 05:48:09 10° SE visible
02 Mar 8.8 03:45:05 25° SSE 03:45:05 25° SSE 03:50:05 10° ESE visible
02 Mar 8.8 05:27:16 15° SW 05:32:00 24° S 05:37:55 10° SE visible
03 Mar 8.9 03:35:32 24° SSE 03:35:32 24° SSE 03:39:53 10° ESE visible
03 Mar 8.8 05:17:43 17° SW 05:21:41 24° SSW 05:27:37 10° SE visible
04 Mar 9.0 03:26:02 22° SSE 03:26:02 22° SSE 03:29:37 10° SE visible
04 Mar 8.8 05:08:13 18° SW 05:11:22 23° SSW 05:17:15 10° SSE visible
05 Mar 9.2 03:16:33 19° SE 03:16:33 19° SE 03:19:18 10° SE visible
05 Mar 8.8 04:58:44 19° SW 05:01:02 21° SSW 05:06:48 10° SSE visible
06 Mar 9.4 03:07:07 16° SE 03:07:07 16° SE 03:08:57 10° SE visible
06 Mar 8.8 04:49:18 19° SSW 04:50:43 20° SSW 04:56:15 10° SSE visible
07 Mar 9.6 02:57:45 12° SE 02:57:45 12° SE 02:58:31 10° SE visible
07 Mar 8.9 04:39:57 18° SSW 04:40:23 18° SSW 04:45:36 10° SSE visible
08 Mar 9.0 04:30:39 16° SSW 04:30:39 16° SSW 04:34:49 10° SSE visible
